Home   Weather   Porto Acre   Past weeks

Flag for Brazil Past Weather in Porto Acre, Acre, Brazil — Yesterday and Last 2 Weeks

Now
81 °F

Passing clouds.


Feels Like: 84 °F
Forecast: 74 / 96 °F
Wind: 6 mph from Northeast

Location: Rio Branco Airport

Current Time: Sep 30, 2016 at 10:15:51 PM

Latest Report: Sep 30, 2016 at 9:00 PM


Visibility: N/A

Pressure: 29.80 "Hg

Humidity: 70%

Dew Point: 70 °F

Location of Porto AcreLocation

Past Weather in Porto Acre — Graph

°F

Porto Acre Temperature Yesterday

Maximum temperature yesterday: 95 °F (at 1:00 PM)
Minimum temperature yesterday: 72 °F (at 4:00 AM)
Average temperature yesterday: 81 °F

High & Low Weather Summary for the Past Weeks

 TemperatureHumidityPressure
High95 °F (Sep 18, 1:00 PM)100% (Sep 16, 12:00 AM)30.60 "Hg (Sep 16, 12:00 AM)
Low43 °F (Sep 24, 1:00 PM)36% (Sep 21, 1:00 PM)29.68 "Hg (Sep 30, 5:00 PM)
Average79 °F76%29.91 "Hg
* Reported Sep 15 9:00 PM — Sep 30 9:00 PM, Porto Acre, Weather by CustomWeather, © 2016

Note: Actual official high and low records may vary slightly from our data, if they occured in-between our weather recording intervals... More about our weather records

Advertising

Porto Acre Weather History for the Previous 24 Hours

Scroll right to see more
 ConditionsComfort  
Time TempWeatherWind HumidityBarometerVisibility
9:00 PM
Fri, Sep 30
81 °FPassing clouds.6 mph70%29.80 "HgN/A
8:00 PM81 °FPassing clouds.5 mph70%29.77 "HgN/A
7:00 PM81 °FPassing clouds.2 mph70%29.74 "HgN/A
6:00 PM82 °FPassing clouds.2 mph66%29.71 "HgN/A
5:00 PM84 °FPartly sunny.5 mph58%29.68 "HgN/A
4:00 PM88 °FScattered showers. Scattered clouds.6 mph52%N/AN/A
3:00 PM91 °FScattered showers. Scattered clouds.3 mph44%N/AN/A
2:00 PM95 °FScattered clouds.5 mph39%29.74 "HgN/A
1:00 PM93 °FScattered clouds.6 mph44%29.80 "HgN/A
12:00 PM91 °FScattered clouds.7 mph46%29.83 "HgN/A
11:00 AM88 °FSunny.6 mph52%29.86 "Hg10 mi
10:00 AM86 °FSunny.7 mph59%29.89 "Hg10 mi
9:00 AM81 °FSunny.7 mph70%29.92 "Hg10 mi
8:00 AM79 °FSunny.7 mph70%29.89 "Hg10 mi
7:00 AM73 °FClear.3 mph89%29.86 "Hg5 mi
6:00 AM72 °FClear.1 mph88%29.86 "Hg4 mi
5:00 AM72 °FClear.3 mph88%29.83 "Hg10 mi
4:00 AM72 °FClear.3 mph88%29.83 "Hg10 mi
3:00 AM72 °FClear.1 mph88%29.83 "Hg10 mi
1:00 AM72 °FClear.2 mph94%29.83 "Hg10 mi
Weather by CustomWeather, © 2016

See weather overviewHow to use our weather pages